Location: Buchdorf
(48.7842°N, 10.8275°E)
Time: 01:58:38
(UTC+00:00)

N. Korean satellite - Pass Details

Date: 06 March 2021
Orbit: 453 x 499 km, 97.2° (Epoch: 11 April)

Event Time Altitude Azimuth Distance (km) Brightness Sun altitude
Rises 04:03:16 0° 24° (NNE) 2,532 10.7 -18.1°
Reaches altitude 10° 04:05:35 10° 38° (NE) 1,657 10.0 -17.7°
Maximum altitude 04:08:34 25° 95° (E) 1,019 9.0 -17.2°
Drops below altitude 10° 04:11:34 10° 152° (SSE) 1,667 9.5 -16.7°
Sets 04:13:54 0° 166° (SSE) 2,550 10.3 -16.4°
